Year,Month,Day,Hour,Minute,Value (Times are PST for temperature in C)
2016,03,18,00,00,3.70
2016,03,18,00,01,3.70
2016,03,18,00,02,3.60
2016,03,18,00,03,3.60
2016,03,18,00,04,3.60
2016,03,18,00,05,3.60
2016,03,18,00,06,3.60
2016,03,18,00,07,3.60
2016,03,18,00,08,3.60
2016,03,18,00,09,3.60
2016,03,18,00,10,3.60
2016,03,18,00,11,3.60
2016,03,18,00,12,3.60
2016,03,18,00,13,3.60
2016,03,18,00,14,3.60
2016,03,18,00,15,3.60
2016,03,18,00,16,3.50
2016,03,18,00,17,3.50
2016,03,18,00,18,3.40
2016,03,18,00,19,3.40
2016,03,18,00,20,3.40
2016,03,18,00,21,3.40
2016,03,18,00,22,3.40
2016,03,18,00,23,3.30
2016,03,18,00,24,3.40
2016,03,18,00,25,3.40
2016,03,18,00,26,3.40
2016,03,18,00,27,3.40
2016,03,18,00,28,3.40
2016,03,18,00,29,3.40
2016,03,18,00,30,3.40
2016,03,18,00,31,3.50
2016,03,18,00,32,3.50
2016,03,18,00,33,3.60
2016,03,18,00,34,3.60
2016,03,18,00,35,3.60
2016,03,18,00,36,3.60
2016,03,18,00,37,3.60
2016,03,18,00,38,3.60
2016,03,18,00,39,3.60
2016,03,18,00,40,3.60
2016,03,18,00,41,3.60
2016,03,18,00,42,3.60
2016,03,18,00,43,3.50
2016,03,18,00,44,3.50
2016,03,18,00,45,3.50
2016,03,18,00,46,3.50
2016,03,18,00,47,3.50
2016,03,18,00,48,3.40
2016,03,18,00,49,3.30
2016,03,18,00,50,3.20
2016,03,18,00,51,3.20
2016,03,18,00,52,3.20
2016,03,18,00,53,3.20
2016,03,18,00,54,3.20
2016,03,18,00,55,3.10
2016,03,18,00,56,3.10
2016,03,18,00,57,3.20
2016,03,18,00,58,3.20
2016,03,18,00,59,3.20
2016,03,18,01,00,3.20
2016,03,18,01,01,3.20
2016,03,18,01,02,3.20
2016,03,18,01,03,3.10
2016,03,18,01,04,3.10
2016,03,18,01,05,3.10
2016,03,18,01,06,3.10
2016,03,18,01,07,3.00
2016,03,18,01,08,3.00
2016,03,18,01,09,3.10
2016,03,18,01,10,3.10
2016,03,18,01,11,3.20
2016,03,18,01,12,3.20
2016,03,18,01,13,3.20
2016,03,18,01,14,3.20
2016,03,18,01,15,3.10
2016,03,18,01,16,3.10
2016,03,18,01,17,3.20
2016,03,18,01,18,3.10
2016,03,18,01,19,3.20
2016,03,18,01,20,3.20
2016,03,18,01,21,3.20
2016,03,18,01,22,3.20
2016,03,18,01,23,3.20
2016,03,18,01,24,3.30
2016,03,18,01,25,3.30
2016,03,18,01,26,3.30
2016,03,18,01,27,3.30
2016,03,18,01,28,3.20
2016,03,18,01,29,3.20
2016,03,18,01,30,3.20
2016,03,18,01,31,3.20
2016,03,18,01,32,3.10
2016,03,18,01,33,3.10
2016,03,18,01,34,3.10
2016,03,18,01,35,3.10
2016,03,18,01,36,3.00
2016,03,18,01,37,3.00
2016,03,18,01,38,3.00
2016,03,18,01,39,3.00
2016,03,18,01,40,3.00
2016,03,18,01,41,3.00
2016,03,18,01,42,3.00
2016,03,18,01,43,3.00
2016,03,18,01,44,3.00
2016,03,18,01,45,3.10
2016,03,18,01,46,3.10
2016,03,18,01,47,3.10
2016,03,18,01,48,3.10
2016,03,18,01,49,3.10
2016,03,18,01,50,3.10
2016,03,18,01,51,3.10
2016,03,18,01,52,3.10
2016,03,18,01,53,3.10
2016,03,18,01,54,3.10
2016,03,18,01,55,3.10
2016,03,18,01,56,3.10
2016,03,18,01,57,3.10
2016,03,18,01,58,3.00
2016,03,18,01,59,3.00
2016,03,18,02,00,3.00
2016,03,18,02,01,3.00
2016,03,18,02,02,3.00
2016,03,18,02,03,3.00
2016,03,18,02,04,2.90
2016,03,18,02,05,2.90
2016,03,18,02,06,2.90
2016,03,18,02,07,2.90
2016,03,18,02,08,2.80
2016,03,18,02,09,2.80
2016,03,18,02,10,2.80
2016,03,18,02,11,2.80
2016,03,18,02,12,2.80
2016,03,18,02,13,2.80
2016,03,18,02,14,2.80
2016,03,18,02,15,2.80
2016,03,18,02,16,2.80
2016,03,18,02,17,2.70
2016,03,18,02,18,2.70
2016,03,18,02,19,2.70
2016,03,18,02,20,2.70
2016,03,18,02,21,2.70
2016,03,18,02,22,2.70
2016,03,18,02,23,2.70
2016,03,18,02,24,2.70
2016,03,18,02,25,2.70
2016,03,18,02,26,2.70
2016,03,18,02,27,2.70
2016,03,18,02,28,2.70
2016,03,18,02,29,2.70
2016,03,18,02,30,2.70
2016,03,18,02,31,2.70
2016,03,18,02,32,2.70
2016,03,18,02,33,2.70
2016,03,18,02,34,2.70
2016,03,18,02,35,2.70
2016,03,18,02,36,2.70
2016,03,18,02,37,2.70
2016,03,18,02,38,2.70
2016,03,18,02,39,2.70
2016,03,18,02,40,2.70
2016,03,18,02,41,2.70
2016,03,18,02,42,2.70
2016,03,18,02,43,2.80
2016,03,18,02,44,2.80
2016,03,18,02,45,2.80
2016,03,18,02,46,2.80
2016,03,18,02,47,2.80
2016,03,18,02,48,2.80
2016,03,18,02,49,2.80
2016,03,18,02,50,2.80
2016,03,18,02,51,2.80
2016,03,18,02,52,2.80
2016,03,18,02,53,2.80
2016,03,18,02,54,2.80
2016,03,18,02,55,2.70
2016,03,18,02,56,2.80
2016,03,18,02,57,2.80
2016,03,18,02,58,2.80
2016,03,18,02,59,2.80
2016,03,18,03,00,2.80
2016,03,18,03,01,2.80
2016,03,18,03,02,2.80
2016,03,18,03,03,2.80
2016,03,18,03,04,2.80
2016,03,18,03,05,2.80
2016,03,18,03,06,2.80
2016,03,18,03,07,2.80
2016,03,18,03,08,2.90
2016,03,18,03,09,2.90
2016,03,18,03,10,2.90
2016,03,18,03,11,2.90
2016,03,18,03,12,2.90
2016,03,18,03,13,2.90
2016,03,18,03,14,3.00
2016,03,18,03,15,3.00
2016,03,18,03,16,3.00
2016,03,18,03,17,3.00
2016,03,18,03,18,3.00
2016,03,18,03,19,3.00
2016,03,18,03,20,3.00
2016,03,18,03,21,2.90
2016,03,18,03,22,2.90
2016,03,18,03,23,2.90
2016,03,18,03,24,2.90
2016,03,18,03,25,2.90
2016,03,18,03,26,2.90
2016,03,18,03,27,2.90
2016,03,18,03,28,2.90
2016,03,18,03,29,2.80
2016,03,18,03,30,2.80
2016,03,18,03,31,2.80
2016,03,18,03,32,2.80
2016,03,18,03,33,2.80
2016,03,18,03,34,2.80
2016,03,18,03,35,2.80
2016,03,18,03,36,2.80
2016,03,18,03,37,2.80
2016,03,18,03,38,2.80
2016,03,18,03,39,2.80
2016,03,18,03,40,2.80
2016,03,18,03,41,2.80
2016,03,18,03,42,2.80
2016,03,18,03,43,2.80
2016,03,18,03,44,2.80
2016,03,18,03,45,2.80
2016,03,18,03,46,2.80
2016,03,18,03,47,2.80
2016,03,18,03,48,2.80
2016,03,18,03,49,2.80
2016,03,18,03,50,2.80
2016,03,18,03,51,2.80
2016,03,18,03,52,2.80
2016,03,18,03,53,2.80
2016,03,18,03,54,2.80
2016,03,18,03,55,2.80
2016,03,18,03,56,2.80
2016,03,18,03,57,2.80
2016,03,18,03,58,2.80
2016,03,18,03,59,2.70
2016,03,18,04,00,2.70
2016,03,18,04,01,2.70
2016,03,18,04,02,2.70
2016,03,18,04,03,2.70
2016,03,18,04,04,2.70
2016,03,18,04,05,2.70
2016,03,18,04,06,2.70
2016,03,18,04,07,2.70
2016,03,18,04,08,2.70
2016,03,18,04,09,2.70
2016,03,18,04,10,2.70
2016,03,18,04,11,2.70
2016,03,18,04,12,2.70
2016,03,18,04,13,2.70
2016,03,18,04,14,2.70
2016,03,18,04,15,2.70
2016,03,18,04,16,2.70
2016,03,18,04,17,2.70
2016,03,18,04,18,2.60
2016,03,18,04,19,2.60
2016,03,18,04,20,2.60
2016,03,18,04,21,2.60
2016,03,18,04,22,2.60
2016,03,18,04,23,2.60
2016,03,18,04,24,2.60
2016,03,18,04,25,2.60
2016,03,18,04,26,2.60
2016,03,18,04,27,2.60
2016,03,18,04,28,2.60
2016,03,18,04,29,2.60
2016,03,18,04,30,2.70
2016,03,18,04,31,2.70
2016,03,18,04,32,2.80
2016,03,18,04,33,2.80
2016,03,18,04,34,2.80
2016,03,18,04,35,2.80
2016,03,18,04,36,2.80
2016,03,18,04,37,2.80
2016,03,18,04,38,2.80
2016,03,18,04,39,2.90
2016,03,18,04,40,2.90
2016,03,18,04,41,2.90
2016,03,18,04,42,2.90
2016,03,18,04,43,2.90
2016,03,18,04,44,2.90
2016,03,18,04,45,2.80
2016,03,18,04,46,2.80
2016,03,18,04,47,2.80
2016,03,18,04,48,2.80
2016,03,18,04,49,2.80
2016,03,18,04,50,2.70
2016,03,18,04,51,2.70
2016,03,18,04,52,2.70
2016,03,18,04,53,2.70
2016,03,18,04,54,2.70
2016,03,18,04,55,2.60
2016,03,18,04,56,2.60
2016,03,18,04,57,2.60
2016,03,18,04,58,2.60
2016,03,18,04,59,2.60
2016,03,18,05,00,2.50
2016,03,18,05,01,2.50
2016,03,18,05,02,2.50
2016,03,18,05,03,2.50
2016,03,18,05,04,2.40
2016,03,18,05,05,2.40
2016,03,18,05,06,2.40
2016,03,18,05,07,2.40
2016,03,18,05,08,2.40
2016,03,18,05,09,2.40
2016,03,18,05,10,2.40
2016,03,18,05,11,2.40
2016,03,18,05,12,2.40
2016,03,18,05,13,2.30
2016,03,18,05,14,2.30
2016,03,18,05,15,2.40
2016,03,18,05,16,2.40
2016,03,18,05,17,2.30
2016,03,18,05,18,2.30
2016,03,18,05,19,2.30
2016,03,18,05,20,2.30
2016,03,18,05,21,2.30
2016,03,18,05,22,2.30
2016,03,18,05,23,2.30
2016,03,18,05,24,2.30
2016,03,18,05,25,2.30
2016,03,18,05,26,2.30
2016,03,18,05,27,2.30
2016,03,18,05,28,2.30
2016,03,18,05,29,2.30
2016,03,18,05,30,2.30
2016,03,18,05,31,2.30
2016,03,18,05,32,2.30
2016,03,18,05,33,2.30
2016,03,18,05,49,2.70
2016,03,18,05,50,2.80
2016,03,18,05,51,3.00
2016,03,18,05,52,3.00
2016,03,18,05,53,3.00
2016,03,18,05,54,3.00
2016,03,18,05,55,2.90
2016,03,18,05,56,2.90
2016,03,18,05,57,2.80
2016,03,18,05,58,2.80
2016,03,18,05,59,2.80
2016,03,18,06,00,2.80
2016,03,18,06,01,2.80
2016,03,18,06,02,2.80
2016,03,18,06,03,2.80
2016,03,18,06,04,2.70
2016,03,18,06,05,2.70
2016,03,18,06,06,2.70
2016,03,18,06,07,2.70
2016,03,18,06,08,2.70
2016,03,18,06,09,2.60
2016,03,18,06,10,2.60
2016,03,18,06,11,2.60
2016,03,18,06,12,2.60
2016,03,18,06,13,2.60
2016,03,18,06,14,2.60
2016,03,18,06,15,2.60
2016,03,18,06,16,2.60
2016,03,18,06,17,2.60
2016,03,18,06,18,2.50
2016,03,18,06,19,2.50
2016,03,18,06,20,2.50
2016,03,18,06,21,2.50
2016,03,18,06,22,2.50
2016,03,18,06,23,2.40
2016,03,18,06,24,2.40
2016,03,18,06,25,2.40
2016,03,18,06,26,2.40
2016,03,18,06,27,2.40
2016,03,18,06,28,2.40
2016,03,18,06,29,2.40
2016,03,18,06,30,2.30
2016,03,18,06,31,2.30
2016,03,18,06,32,2.30
2016,03,18,06,33,2.30
2016,03,18,06,34,2.30
2016,03,18,06,35,2.30
2016,03,18,06,36,2.30
2016,03,18,06,37,2.30
2016,03,18,06,38,2.30
2016,03,18,06,39,2.30
2016,03,18,06,40,2.30
2016,03,18,06,41,2.30
2016,03,18,06,42,2.30
2016,03,18,06,43,2.30
2016,03,18,06,44,2.30
2016,03,18,06,45,2.20
2016,03,18,06,46,2.20
2016,03,18,06,47,2.20
2016,03,18,06,48,2.20
2016,03,18,06,49,2.20
2016,03,18,06,50,2.20
2016,03,18,06,51,2.20
2016,03,18,06,52,2.20
2016,03,18,06,53,2.20
2016,03,18,06,54,2.20
2016,03,18,06,55,2.20
2016,03,18,06,56,2.20
2016,03,18,06,57,2.20
2016,03,18,06,58,2.20
2016,03,18,06,59,2.20
2016,03,18,07,00,2.20
2016,03,18,07,01,2.20
2016,03,18,07,02,2.20
2016,03,18,07,03,2.20
2016,03,18,07,04,2.20
2016,03,18,07,05,2.30
2016,03,18,07,06,2.30
2016,03,18,07,07,2.30
2016,03,18,07,08,2.30
2016,03,18,07,09,2.30
2016,03,18,07,10,2.30
2016,03,18,07,11,2.30
2016,03,18,07,12,2.30
2016,03,18,07,13,2.30
2016,03,18,07,14,2.30
2016,03,18,07,15,2.30
2016,03,18,07,16,2.20
2016,03,18,07,17,2.20
2016,03,18,07,18,2.20
2016,03,18,07,19,2.20
2016,03,18,07,20,2.20
2016,03,18,07,21,2.20
2016,03,18,07,22,2.20
2016,03,18,07,23,2.20
2016,03,18,07,24,2.20
2016,03,18,07,25,2.20
2016,03,18,07,26,2.20
2016,03,18,07,27,2.20
2016,03,18,07,28,2.20
2016,03,18,07,29,2.20
2016,03,18,07,30,2.10
2016,03,18,07,31,2.10
2016,03,18,07,32,2.10
2016,03,18,07,33,2.10
2016,03,18,07,34,2.10
2016,03,18,07,35,2.10
2016,03,18,07,36,2.10
2016,03,18,07,37,2.10
2016,03,18,07,38,2.10
2016,03,18,07,39,2.00
2016,03,18,07,40,2.00
2016,03,18,07,41,2.00
2016,03,18,07,42,2.00
2016,03,18,07,43,1.90
2016,03,18,07,44,1.90
2016,03,18,07,45,1.90
2016,03,18,07,46,1.90
2016,03,18,07,47,1.90
2016,03,18,07,48,1.90
2016,03,18,07,49,1.90
2016,03,18,07,50,1.90
2016,03,18,07,51,1.90
2016,03,18,07,52,1.90
2016,03,18,07,53,1.90
2016,03,18,07,54,1.90
2016,03,18,07,55,1.90
2016,03,18,07,56,2.00
2016,03,18,07,57,2.00
2016,03,18,07,58,2.00
2016,03,18,07,59,2.00
2016,03,18,08,00,2.00
2016,03,18,08,01,2.10
2016,03,18,08,02,2.10
2016,03,18,08,03,2.10
2016,03,18,08,04,2.20
2016,03,18,08,05,2.20
2016,03,18,08,06,2.20
2016,03,18,08,07,2.20
2016,03,18,08,08,2.30
2016,03,18,08,09,2.30
2016,03,18,08,10,2.30
2016,03,18,08,11,2.30
2016,03,18,08,12,2.30
2016,03,18,08,13,2.30
2016,03,18,08,14,2.30
2016,03,18,08,15,2.20
2016,03,18,08,16,2.20
2016,03,18,08,17,2.20
2016,03,18,08,18,2.20
2016,03,18,08,19,2.20
2016,03,18,08,20,2.30
2016,03,18,08,21,2.30
2016,03,18,08,22,2.30
2016,03,18,08,23,2.30
2016,03,18,08,24,2.30
2016,03,18,08,25,2.30
2016,03,18,08,26,2.30
2016,03,18,08,27,2.40
2016,03,18,08,28,2.40
2016,03,18,08,29,2.40
2016,03,18,08,30,2.40
2016,03,18,08,31,2.40
2016,03,18,08,32,2.50
2016,03,18,08,33,2.50
2016,03,18,08,34,2.50
2016,03,18,08,35,2.60
2016,03,18,08,36,2.60
2016,03,18,08,37,2.60
2016,03,18,08,38,2.70
2016,03,18,08,39,2.70
2016,03,18,08,40,2.70
2016,03,18,08,41,2.70
2016,03,18,08,42,2.80
2016,03,18,08,43,2.80
2016,03,18,08,44,2.80
2016,03,18,08,45,2.80
2016,03,18,08,46,2.80
2016,03,18,08,47,2.80
2016,03,18,08,48,2.80
2016,03,18,08,49,2.80
2016,03,18,08,50,2.90
2016,03,18,08,51,2.90
2016,03,18,08,52,2.90
2016,03,18,08,53,3.00
2016,03,18,08,54,3.00
2016,03,18,08,55,3.10
2016,03,18,08,56,3.10
2016,03,18,08,57,3.10
2016,03,18,08,58,3.20
2016,03,18,08,59,3.20
2016,03,18,09,00,3.20
2016,03,18,09,01,3.20
2016,03,18,09,02,3.20
2016,03,18,09,03,3.30
2016,03,18,09,04,3.30
2016,03,18,09,05,3.40
2016,03,18,09,06,3.40
2016,03,18,09,07,3.40
2016,03,18,09,08,3.50
2016,03,18,09,09,3.60
2016,03,18,09,10,3.60
2016,03,18,09,11,3.70
2016,03,18,09,12,3.70
2016,03,18,09,13,3.80
2016,03,18,09,14,3.80
2016,03,18,09,15,3.80
2016,03,18,09,16,3.90
2016,03,18,09,17,3.90
2016,03,18,09,18,3.90
2016,03,18,09,19,3.90
2016,03,18,09,20,4.00
2016,03,18,09,21,4.00
2016,03,18,09,22,4.00
2016,03,18,09,23,4.10
2016,03,18,09,24,4.10
2016,03,18,09,25,4.10
2016,03,18,09,26,4.10
2016,03,18,09,27,4.10
2016,03,18,09,28,4.10
2016,03,18,09,29,4.10
2016,03,18,09,30,4.10
2016,03,18,09,31,4.10
2016,03,18,09,32,4.10
2016,03,18,09,33,4.10
2016,03,18,09,49,4.70
2016,03,18,09,50,4.70
2016,03,18,09,51,4.70
2016,03,18,09,52,4.70
2016,03,18,09,53,4.70
2016,03,18,09,54,4.80
2016,03,18,09,55,4.80
2016,03,18,09,56,4.80
2016,03,18,09,57,4.80
2016,03,18,09,58,4.90
2016,03,18,09,59,4.90
2016,03,18,10,00,4.90
2016,03,18,10,01,5.00
2016,03,18,10,02,5.10
2016,03,18,10,03,5.10
2016,03,18,10,04,5.20
2016,03,18,10,05,5.30
2016,03,18,10,06,5.30
2016,03,18,10,07,5.30
2016,03,18,10,08,5.40
2016,03,18,10,09,5.40
2016,03,18,10,10,5.50
2016,03,18,10,11,5.60
2016,03,18,10,12,5.70
2016,03,18,10,13,5.80
2016,03,18,10,14,5.80
2016,03,18,10,15,5.90
2016,03,18,10,16,6.00
2016,03,18,10,17,6.10
2016,03,18,10,18,6.10
2016,03,18,10,19,6.20
2016,03,18,10,20,6.20
2016,03,18,10,21,6.20
2016,03,18,10,22,6.30
2016,03,18,10,23,6.40
2016,03,18,10,24,6.50
2016,03,18,10,25,6.50
2016,03,18,10,26,6.60
2016,03,18,10,27,6.70
2016,03,18,10,28,6.80
2016,03,18,10,29,6.90
2016,03,18,10,30,7.10
2016,03,18,10,31,7.20
2016,03,18,10,32,7.30
2016,03,18,10,33,7.40
2016,03,18,10,34,7.50
2016,03,18,10,35,7.70
2016,03,18,10,36,7.80
2016,03,18,10,37,8.00
2016,03,18,10,38,8.10
2016,03,18,10,39,8.30
2016,03,18,10,40,8.50
2016,03,18,10,41,8.70
2016,03,18,10,42,8.80
2016,03,18,10,43,8.90
2016,03,18,10,44,9.00
2016,03,18,10,45,9.10
2016,03,18,10,46,9.10
2016,03,18,10,47,9.10
2016,03,18,10,48,9.10
2016,03,18,10,49,9.20
2016,03,18,10,50,9.20
2016,03,18,10,51,9.20
2016,03,18,10,52,9.20
2016,03,18,10,53,9.30
2016,03,18,10,54,9.30
2016,03,18,10,55,9.30
2016,03,18,10,56,9.30
2016,03,18,10,57,9.30
2016,03,18,10,58,9.30
2016,03,18,10,59,9.30
2016,03,18,11,00,9.30
2016,03,18,11,01,9.30
2016,03,18,11,02,9.30
2016,03,18,11,03,9.30
2016,03,18,11,04,9.30
2016,03,18,11,05,9.30
2016,03,18,11,06,9.30
2016,03,18,11,07,9.30
2016,03,18,11,08,9.30
2016,03,18,11,09,9.30
2016,03,18,11,10,9.30
2016,03,18,11,11,9.40
2016,03,18,11,12,9.40
2016,03,18,11,13,9.40
2016,03,18,11,14,9.50
2016,03,18,11,15,9.50
2016,03,18,11,16,9.50
2016,03,18,11,17,9.60
2016,03,18,11,18,9.60
2016,03,18,11,19,9.70
2016,03,18,11,20,9.70
2016,03,18,11,21,9.80
2016,03,18,11,22,9.80
2016,03,18,11,23,9.80
2016,03,18,11,24,9.70
2016,03,18,11,25,9.70
2016,03,18,11,26,9.70
2016,03,18,11,27,9.70
2016,03,18,11,28,9.70
2016,03,18,11,29,9.70
2016,03,18,11,30,9.70
2016,03,18,11,31,9.70
2016,03,18,11,32,9.70
2016,03,18,11,33,9.70
2016,03,18,11,34,9.70
2016,03,18,11,35,9.70
2016,03,18,11,36,9.70
2016,03,18,11,37,9.80
2016,03,18,11,38,9.80
2016,03,18,11,39,9.80
2016,03,18,11,40,9.80
2016,03,18,11,41,9.80
2016,03,18,11,42,9.80
2016,03,18,11,43,9.80
2016,03,18,11,44,9.90
2016,03,18,11,45,9.80
2016,03,18,11,46,9.90
2016,03,18,11,47,9.90
2016,03,18,11,48,9.90
2016,03,18,11,49,9.90
2016,03,18,11,50,10.00
2016,03,18,11,51,10.00
2016,03,18,11,52,9.90
2016,03,18,11,53,10.00
2016,03,18,11,54,10.00
2016,03,18,11,55,10.00
2016,03,18,11,56,10.10
2016,03,18,11,57,10.10
2016,03,18,11,58,10.10
2016,03,18,11,59,10.10
2016,03,18,12,00,10.10
2016,03,18,12,01,10.10
2016,03,18,12,02,10.10
2016,03,18,12,03,10.10
2016,03,18,12,04,10.00
2016,03,18,12,05,10.00
2016,03,18,12,06,10.00
2016,03,18,12,07,10.00
2016,03,18,12,08,10.00
2016,03,18,12,09,10.00
2016,03,18,12,10,10.00
2016,03,18,12,11,10.10
2016,03,18,12,12,10.20
2016,03,18,12,13,10.20
2016,03,18,12,14,10.20
2016,03,18,12,15,10.30
2016,03,18,12,16,10.30
2016,03,18,12,17,10.30
2016,03,18,12,18,10.30
2016,03,18,12,19,10.20
2016,03,18,12,20,10.20
2016,03,18,12,21,10.20
2016,03,18,12,22,10.20
2016,03,18,12,23,10.30
2016,03,18,12,24,10.30
2016,03,18,12,25,10.30
2016,03,18,12,26,10.40
2016,03,18,12,27,10.40
2016,03,18,12,28,10.40
2016,03,18,12,29,10.50
2016,03,18,12,30,10.50
2016,03,18,12,31,10.60
2016,03,18,12,32,10.60
2016,03,18,12,33,10.60
2016,03,18,12,34,10.70
2016,03,18,12,35,10.70
2016,03,18,12,36,10.70
2016,03,18,12,37,10.70
2016,03,18,12,38,10.70
2016,03,18,12,39,10.70
2016,03,18,12,40,10.70
2016,03,18,12,41,10.70
2016,03,18,12,42,10.70
2016,03,18,12,43,10.70
2016,03,18,12,44,10.70
2016,03,18,12,45,10.70
2016,03,18,12,46,10.70
2016,03,18,12,47,10.70
2016,03,18,12,48,10.70
2016,03,18,12,49,10.70
2016,03,18,12,50,10.70
2016,03,18,12,51,10.70
2016,03,18,12,52,10.80
2016,03,18,12,53,10.80
2016,03,18,12,54,10.80
2016,03,18,12,55,10.80
2016,03,18,12,56,10.80
2016,03,18,12,57,10.90
2016,03,18,12,58,10.90
2016,03,18,12,59,10.90
2016,03,18,13,00,11.00
2016,03,18,13,01,11.10
2016,03,18,13,02,11.10
2016,03,18,13,03,11.20
2016,03,18,13,04,11.20
2016,03,18,13,05,11.30
2016,03,18,13,06,11.30
2016,03,18,13,07,11.30
2016,03,18,13,08,11.40
2016,03,18,13,09,11.40
2016,03,18,13,10,11.40
2016,03,18,13,11,11.40
2016,03,18,13,12,11.40
2016,03,18,13,13,11.40
2016,03,18,13,14,11.40
2016,03,18,13,15,11.40
2016,03,18,13,16,11.40
2016,03,18,13,17,11.40
2016,03,18,13,18,11.40
2016,03,18,13,19,11.40
2016,03,18,13,20,11.40
2016,03,18,13,21,11.50
2016,03,18,13,22,11.50
2016,03,18,13,23,11.50
2016,03,18,13,24,11.50
2016,03,18,13,25,11.60
2016,03,18,13,26,11.60
2016,03,18,13,27,11.60
2016,03,18,13,28,11.60
2016,03,18,13,29,11.70
2016,03,18,13,30,11.70
2016,03,18,13,31,11.70
2016,03,18,13,32,11.70
2016,03,18,13,33,11.70
2016,03,18,13,34,11.70
2016,03,18,13,35,11.70
2016,03,18,13,36,11.70
2016,03,18,13,37,11.70
2016,03,18,13,38,11.70
2016,03,18,13,39,11.70
2016,03,18,13,40,11.70
2016,03,18,13,41,11.70
2016,03,18,13,42,11.70
2016,03,18,13,43,11.70
2016,03,18,13,44,11.70
2016,03,18,13,45,11.70
2016,03,18,13,46,11.70
2016,03,18,13,47,11.70
2016,03,18,13,48,11.80
2016,03,18,13,49,11.70
2016,03,18,13,50,11.70
2016,03,18,13,51,11.70
2016,03,18,13,52,11.80
2016,03,18,13,53,11.80
2016,03,18,13,54,11.90
2016,03,18,13,55,11.90
2016,03,18,13,56,11.90
2016,03,18,13,57,12.00
2016,03,18,13,58,12.00
2016,03,18,13,59,12.00
2016,03,18,14,00,11.90
2016,03,18,14,01,11.90
2016,03,18,14,02,11.90
2016,03,18,14,03,11.80
2016,03,18,14,04,11.80
2016,03,18,14,05,11.80
2016,03,18,14,06,11.80
2016,03,18,14,07,11.80
2016,03,18,14,08,11.80
2016,03,18,14,09,11.80
2016,03,18,14,10,11.80
2016,03,18,14,11,11.90
2016,03,18,14,12,11.90
2016,03,18,14,13,11.90
2016,03,18,14,14,11.90
2016,03,18,14,15,11.90
2016,03,18,14,16,11.90
2016,03,18,14,17,11.80
2016,03,18,14,18,11.80
2016,03,18,14,19,11.80
2016,03,18,14,20,11.80
2016,03,18,14,21,11.80
2016,03,18,14,22,11.80
2016,03,18,14,23,11.80
2016,03,18,14,24,11.80
2016,03,18,14,25,11.80
2016,03,18,14,26,11.80
2016,03,18,14,27,11.90
2016,03,18,14,28,11.80
2016,03,18,14,29,11.80
2016,03,18,14,30,11.80
2016,03,18,14,31,11.90
2016,03,18,14,32,11.90
2016,03,18,14,33,11.90
2016,03,18,14,34,12.00
2016,03,18,14,35,12.00
2016,03,18,14,36,12.10
2016,03,18,14,37,12.10
2016,03,18,14,38,12.20
2016,03,18,14,39,12.20
2016,03,18,14,40,12.20
2016,03,18,14,41,12.20
2016,03,18,14,42,12.20
2016,03,18,14,43,12.20
2016,03,18,14,44,12.20
2016,03,18,14,45,12.20
2016,03,18,14,46,12.30
2016,03,18,14,47,12.30
2016,03,18,14,48,12.20
2016,03,18,14,49,12.20
2016,03,18,14,50,12.20
2016,03,18,14,51,12.20
2016,03,18,14,52,12.20
2016,03,18,14,53,12.20
2016,03,18,14,54,12.20
2016,03,18,14,55,12.20
2016,03,18,14,56,12.10
2016,03,18,14,57,12.10
2016,03,18,14,58,12.10
2016,03,18,14,59,12.20
2016,03,18,15,00,12.10
2016,03,18,15,01,12.10
2016,03,18,15,02,12.10
2016,03,18,15,03,12.10
2016,03,18,15,04,12.10
2016,03,18,15,05,12.10
2016,03,18,15,06,12.10
2016,03,18,15,07,12.00
2016,03,18,15,08,12.00
2016,03,18,15,09,12.00
2016,03,18,15,10,12.00
2016,03,18,15,11,11.90
2016,03,18,15,12,11.90
2016,03,18,15,13,11.90
2016,03,18,15,14,11.90
2016,03,18,15,15,11.90
2016,03,18,15,16,11.90
2016,03,18,15,17,11.90
2016,03,18,15,18,11.90
2016,03,18,15,19,11.90
2016,03,18,15,20,11.90
2016,03,18,15,21,11.90
2016,03,18,15,22,11.90
2016,03,18,15,23,11.90
2016,03,18,15,24,11.90
2016,03,18,15,25,11.90
2016,03,18,15,26,11.90
2016,03,18,15,27,11.90
2016,03,18,15,28,11.90
2016,03,18,15,29,12.00
2016,03,18,15,30,12.00
2016,03,18,15,31,12.00
2016,03,18,15,32,12.00
2016,03,18,15,33,12.00
2016,03,18,15,34,12.00
2016,03,18,15,35,12.00
2016,03,18,15,36,12.10
2016,03,18,15,37,12.20
2016,03,18,15,38,12.20
2016,03,18,15,39,12.30
2016,03,18,15,40,12.30
2016,03,18,15,41,12.30
2016,03,18,15,42,12.30
2016,03,18,15,43,12.20
2016,03,18,15,44,12.20
2016,03,18,15,45,12.20
2016,03,18,15,46,12.20
2016,03,18,15,47,12.20
2016,03,18,15,48,12.20
2016,03,18,15,49,12.20
2016,03,18,15,50,12.20
2016,03,18,15,51,12.20
2016,03,18,15,52,12.20
2016,03,18,15,53,12.20
2016,03,18,15,54,12.10
2016,03,18,15,55,12.10
2016,03,18,15,56,12.10
2016,03,18,15,57,12.10
2016,03,18,15,58,12.10
2016,03,18,15,59,12.00
2016,03,18,16,00,12.00
2016,03,18,16,01,12.00
2016,03,18,16,02,12.00
2016,03,18,16,03,11.90
2016,03,18,16,04,11.90
2016,03,18,16,05,11.90
2016,03,18,16,06,11.90
2016,03,18,16,07,11.90
2016,03,18,16,08,12.00
2016,03,18,16,09,12.00
2016,03,18,16,10,12.00
2016,03,18,16,11,12.00
2016,03,18,16,12,12.00
2016,03,18,16,13,12.00
2016,03,18,16,14,12.00
2016,03,18,16,15,12.00
2016,03,18,16,16,12.00
2016,03,18,16,17,12.00
2016,03,18,16,18,12.00
2016,03,18,16,19,11.90
2016,03,18,16,20,11.90
2016,03,18,16,21,11.90
2016,03,18,16,22,11.90
2016,03,18,16,23,11.90
2016,03,18,16,24,11.90
2016,03,18,16,25,11.90
2016,03,18,16,26,11.90
2016,03,18,16,27,11.90
2016,03,18,16,28,11.90
2016,03,18,16,29,11.90
2016,03,18,16,30,11.90
2016,03,18,16,31,11.90
2016,03,18,16,32,11.90
2016,03,18,16,33,11.90
2016,03,18,16,34,11.90
2016,03,18,16,35,11.90
2016,03,18,16,36,11.90
2016,03,18,16,37,11.90
2016,03,18,16,38,11.90
2016,03,18,16,39,11.90
2016,03,18,16,40,12.00
2016,03,18,16,41,12.00
2016,03,18,16,42,12.00
2016,03,18,16,43,12.00
2016,03,18,16,44,12.00
2016,03,18,16,45,12.00
2016,03,18,16,46,12.10
2016,03,18,16,47,12.10
2016,03,18,16,48,12.10
2016,03,18,16,49,12.20
2016,03,18,16,50,12.20
2016,03,18,16,51,12.20
2016,03,18,16,52,12.20
2016,03,18,16,53,12.10
2016,03,18,16,54,12.20
2016,03,18,16,55,12.20
2016,03,18,16,56,12.20
2016,03,18,16,57,12.20
2016,03,18,16,58,12.10
2016,03,18,16,59,12.10
2016,03,18,17,00,12.10
2016,03,18,17,01,12.10
2016,03,18,17,02,12.10
2016,03,18,17,03,12.10
2016,03,18,17,04,12.10
2016,03,18,17,05,12.10
2016,03,18,17,06,12.10
2016,03,18,17,07,12.20
2016,03,18,17,08,12.10
2016,03,18,17,09,12.10
2016,03,18,17,10,12.10
2016,03,18,17,11,12.00
2016,03,18,17,12,12.00
2016,03,18,17,13,12.00
2016,03,18,17,14,11.90
2016,03,18,17,15,11.90
2016,03,18,17,16,11.90
2016,03,18,17,17,11.90
2016,03,18,17,18,11.80
2016,03,18,17,19,11.80
2016,03,18,17,20,11.80
2016,03,18,17,21,11.90
2016,03,18,17,22,11.90
2016,03,18,17,23,11.80
2016,03,18,17,24,11.90
2016,03,18,17,25,11.90
2016,03,18,17,26,11.90
2016,03,18,17,27,11.90
2016,03,18,17,28,11.90
2016,03,18,17,29,11.90
2016,03,18,17,30,11.90
2016,03,18,17,31,11.90
2016,03,18,17,32,11.90
2016,03,18,17,33,11.90
2016,03,18,17,34,11.90
2016,03,18,17,35,11.90
2016,03,18,17,36,11.90
2016,03,18,17,37,11.90
2016,03,18,17,38,11.80
2016,03,18,17,39,11.80
2016,03,18,17,40,11.80
2016,03,18,17,41,11.80
2016,03,18,17,42,11.80
2016,03,18,17,43,11.80
2016,03,18,17,44,11.80
2016,03,18,17,45,11.80
2016,03,18,17,46,11.80
2016,03,18,17,47,11.80
2016,03,18,17,48,11.80
2016,03,18,17,49,11.80
2016,03,18,17,50,11.80
2016,03,18,17,51,11.80
2016,03,18,17,52,11.80
2016,03,18,17,53,11.80
2016,03,18,17,54,11.80
2016,03,18,17,55,11.80
2016,03,18,17,56,11.80
2016,03,18,17,57,11.70
2016,03,18,17,58,11.70
2016,03,18,17,59,11.70
2016,03,18,18,00,11.70
2016,03,18,18,01,11.70
2016,03,18,18,02,11.70
2016,03,18,18,03,11.70
2016,03,18,18,04,11.70
2016,03,18,18,05,11.70
2016,03,18,18,06,11.70
2016,03,18,18,07,11.70
2016,03,18,18,08,11.70
2016,03,18,18,09,11.70
2016,03,18,18,10,11.70
2016,03,18,18,11,11.70
2016,03,18,18,12,11.70
2016,03,18,18,13,11.70
2016,03,18,18,14,11.70
2016,03,18,18,15,11.70
2016,03,18,18,16,11.70
2016,03,18,18,17,11.70
2016,03,18,18,18,11.70
2016,03,18,18,19,11.60